Dobrodošli na spletni strani vremenske postaje Senovo. Vse informacije so informativnega značaja, saj vremenska postaja ni del državne mreže meteoroloških postaj. AKTUALNIH OBVESTIL NI.


Posebna pozornost v zvezi z vremenskimi dogajanji ni potrebna.    Posebna pozornost v zvezi z vremenskimi dogajanji ni potrebna.

Pogled proti Armezu več informacij Pogled proti Armezu


Bohor več informacij Bohor


Radar strel več informacij blitzortung!


Radar padavin več informacij rain snow radar


Obiščite še:

Template documentation
and downloads

And another site



Weather Underground, zgodovina - Tekstovno

Dnevni povzetek za April 5, 2017 Enote:  Metrično    Angleško   Obe
« Predhodni Dan
Naslednji Dan »
Dnevni Tedenski Mesečni Letni Po meri
  Višja: Nižja: Povprečje:
Temperatura: -17.8 °C -13.4 °C -11.3 °C
Točka rosišča: -17.8 °C -14.6 °C -13.8 °C
Vlažnost: Humidity % 49 % 75 %
Hitrost vetra: 0 km/h 0 km/h 2.1 km/h
Sunki vetra: 0 km/h - -
Veter:- - South
Zračni tlak: 0 hPa 34337.4 hPa -
Padavine: 7.62 mm    
Historical Graphs
 
 
Tabelarni podarki za April 5, 2017
Čas Temperatura Točka rosišča Zračni tlak Veter Hitrost vetra Sunki vetra Vlažnost Intenziteta padavin (urna)
-17.8 °C -17.8 °C 0 hPa Calm     Humidity % 0 mm
00:03 -11.7 °C -14.1 °C 34476.3 hPa Calm     74 % 0 mm
00:08 -11.7 °C -14 °C 34476.3 hPa WSW 0.3 km/h 6.9 km/h 76 % 0 mm
00:13 -11.8 °C -14.1 °C 34476.3 hPa WSW 0.3 km/h 6.9 km/h 76 % 0 mm
00:18 -12 °C -14.3 °C 34428.8 hPa Calm   2.9 km/h 76 % 0 mm
00:23 -12.1 °C -14.3 °C 34428.8 hPa North 0.3 km/h 3.4 km/h 76 % 0 mm
00:28 -12.1 °C -14.3 °C 34428.8 hPa North 0.3 km/h 3.4 km/h 77 % 0 mm
00:34 -12.2 °C -14.5 °C 34428.8 hPa Calm     76 % 0 mm
00:38 -12.3 °C -14.3 °C 34428.8 hPa Calm     78 % 0 mm
00:43 -12.4 °C -14.4 °C 34428.8 hPa Calm     78 % 0 mm
00:48 -12.5 °C -14.4 °C 34428.8 hPa Calm     79 % 0 mm
00:53 -12.6 °C -14.5 °C 34428.8 hPa Calm     79 % 0 mm
00:59 -12.6 °C -14.4 °C 34428.8 hPa Calm     80 % 0 mm
01:04 -12.6 °C -14.4 °C 34428.8 hPa Calm     80 % 0 mm
01:09 -12.7 °C -14.5 °C 34428.8 hPa Calm   4.2 km/h 80 % 0 mm
01:14 -12.7 °C -14.4 °C 34428.8 hPa NW 2.1 km/h 7.6 km/h 81 % 0 mm
01:19 -12.7 °C -14.4 °C 34428.8 hPa NW 2.1 km/h 7.6 km/h 81 % 0 mm
01:24 -12.7 °C -14.4 °C 34428.8 hPa Calm   4.2 km/h 81 % 0 mm
01:29 -12.7 °C -14.3 °C 34428.8 hPa ESE 1.6 km/h 6.4 km/h 82 % 0 mm
01:34 -12.7 °C -14.3 °C 34428.8 hPa ESE 2.1 km/h 6.4 km/h 82 % 0 mm
01:39 -12.7 °C -14.3 °C 34428.8 hPa ESE 1 km/h 5.6 km/h 82 % 0 mm
01:44 -12.7 °C -14.2 °C 34428.8 hPa WNW 0.8 km/h 5.6 km/h 83 % 0 mm
01:49 -12.7 °C -14.3 °C 34428.8 hPa WNW 0.5 km/h 5.1 km/h 82 % 0 mm
01:54 -12.7 °C -14.2 °C 34428.8 hPa NW 0.8 km/h 5.1 km/h 83 % 0 mm
01:59 -12.7 °C -14.2 °C 34428.8 hPa NNE 0.3 km/h 5.6 km/h 83 % 0 mm
02:04 -12.7 °C -14.2 °C 34428.8 hPa NNE 0.3 km/h 5.6 km/h 83 % 0 mm
02:09 -12.8 °C -14.2 °C 34428.8 hPa SW 2.3 km/h 6.9 km/h 84 % 0 mm
02:14 -12.8 °C -14.3 °C 34428.8 hPa SW 2.9 km/h 6.9 km/h 84 % 0 mm
02:19 -12.8 °C -14.3 °C 34428.8 hPa West 1.3 km/h 7.6 km/h 84 % 0 mm
02:24 -12.8 °C -14.3 °C 34428.8 hPa West 1 km/h 7.6 km/h 84 % 0 mm
02:29 -12.8 °C -14.3 °C 34428.8 hPa NW 0.8 km/h 5.1 km/h 84 % 0 mm
02:34 -12.9 °C -14.2 °C 34428.8 hPa Calm     85 % 0 mm
02:39 -12.9 °C -14.2 °C 34428.8 hPa Calm     85 % 0 mm
02:44 -12.9 °C -14.2 °C 34428.8 hPa NNE 0.8 km/h 5.1 km/h 85 % 0 mm
02:49 -12.9 °C -14.3 °C 34428.8 hPa WNW 1.6 km/h 5.1 km/h 85 % 0 mm
02:54 -12.9 °C -14.3 °C 34428.8 hPa SW 2.1 km/h 7.6 km/h 85 % 0 mm
02:59 -12.9 °C -14.2 °C 34428.8 hPa SW 3.1 km/h 7.6 km/h 86 % 0 mm
03:04 -12.9 °C -14.2 °C 34428.8 hPa WNW 1.8 km/h 7.6 km/h 86 % 0 mm
03:09 -13 °C -14.2 °C 34428.8 hPa Calm     86 % 0 mm
03:14 -13 °C -14.2 °C 34428.8 hPa Calm     86 % 0 mm
03:19 -13.1 °C -14.3 °C 34428.8 hPa NNE 0.3 km/h 3.4 km/h 86 % 0 mm
03:24 -13.1 °C -14.3 °C 34428.8 hPa NNE 0.5 km/h 5.1 km/h 86 % 0 mm
03:29 -13.1 °C -14.3 °C 34428.8 hPa West 0.8 km/h 5.1 km/h 86 % 0 mm
03:34 -13.2 °C -14.4 °C 34405.1 hPa West 1 km/h 5.1 km/h 86 % 0 mm
03:39 -13.2 °C -14.4 °C 34405.1 hPa WNW 0.5 km/h 4.2 km/h 86 % 0 mm
03:44 -13.2 °C -14.4 °C 34405.1 hPa Calm     86 % 0 mm
03:49 -13.3 °C -14.5 °C 34405.1 hPa Calm     86 % 0 mm
03:54 -13.3 °C -14.6 °C 34405.1 hPa Calm     86 % 0 mm
03:59 -13.3 °C -14.6 °C 34405.1 hPa Calm     86 % 0 mm
04:05 -13.3 °C -14.5 °C 34405.1 hPa Calm     87 % 0 mm
04:10 -13.3 °C -14.5 °C 34405.1 hPa Calm     87 % 0 mm
04:15 -13.3 °C -14.5 °C 34405.1 hPa Calm     87 % 0 mm
04:20 -13.3 °C -14.5 °C 34405.1 hPa Calm     87 % 0 mm
04:25 -13.3 °C -14.5 °C 34405.1 hPa Calm     87 % 0 mm
04:30 -13.3 °C -14.4 °C 34405.1 hPa Calm     87 % 0 mm
04:35 -13.3 °C -14.4 °C 34405.1 hPa Calm     87 % 0 mm
04:40 -13.3 °C -14.3 °C 34405.1 hPa Calm   2.9 km/h 88 % 0 mm
04:45 -13.3 °C -14.4 °C 34405.1 hPa SW 0.5 km/h 5.1 km/h 87 % 0 mm
04:50 -13.3 °C -14.3 °C 34405.1 hPa WSW 0.5 km/h 5.1 km/h 88 % 0 mm
04:55 -13.3 °C -14.2 °C 34405.1 hPa Calm     89 % 0 mm
05:00 -13.3 °C -14.2 °C 34405.1 hPa Calm     89 % 0 mm
05:05 -13.2 °C -14.2 °C 34405.1 hPa Calm     89 % 0 mm
05:10 -13.2 °C -14.2 °C 34405.1 hPa Calm     89 % 0 mm
05:16 -13.2 °C -14.2 °C 34405.1 hPa Calm     89 % 0 mm
05:21 -13.2 °C -14.1 °C 34405.1 hPa Calm     89 % 0 mm
05:26 -13.2 °C -14.1 °C 34405.1 hPa Calm     89 % 0 mm
05:31 -13.2 °C -14.1 °C 34405.1 hPa Calm     89 % 0 mm
05:36 -13.2 °C -14.2 °C 34405.1 hPa Calm     89 % 0 mm
05:41 -13.2 °C -14.2 °C 34405.1 hPa Calm     89 % 0 mm
05:46 -13.3 °C -14.2 °C 34405.1 hPa Calm     89 % 0 mm
05:51 -13.3 °C -14.2 °C 34405.1 hPa Calm     89 % 0 mm
05:56 -13.3 °C -14.3 °C 34405.1 hPa Calm     89 % 0 mm
06:01 -13.4 °C -14.3 °C 34405.1 hPa Calm     89 % 0 mm
06:06 -13.4 °C -14.3 °C 34405.1 hPa Calm     89 % 0 mm
06:11 -13.4 °C -14.3 °C 34405.1 hPa Calm     89 % 0 mm
06:16 -13.4 °C -14.3 °C 34405.1 hPa Calm     90 % 0 mm
06:21 -13.4 °C -14.3 °C 34405.1 hPa Calm     89 % 0 mm
06:26 -13.4 °C -14.3 °C 34405.1 hPa Calm     89 % 0 mm
06:31 -13.4 °C -14.3 °C 34405.1 hPa Calm     90 % 0 mm
06:33 -13.4 °C -14.3 °C 34405.1 hPa Calm     90 % 0 mm
06:38 -13.3 °C -14.3 °C 34405.1 hPa Calm     89 % 0 mm
06:43 -13.3 °C -14.2 °C 34405.1 hPa Calm     90 % 0 mm
06:48 -13.3 °C -14.2 °C 34405.1 hPa Calm     90 % 0 mm
06:53 -13.3 °C -14.2 °C 34405.1 hPa Calm     90 % 0 mm
06:58 -13.4 °C -14.3 °C 34405.1 hPa Calm     90 % 0 mm
07:03 -13.4 °C -14.3 °C 34428.8 hPa Calm     90 % 0 mm
07:08 -13.4 °C -14.3 °C 34428.8 hPa Calm     90 % 0 mm
07:13 -13.4 °C -14.3 °C 34428.8 hPa Calm     90 % 0 mm
07:18 -13.3 °C -14.2 °C 34428.8 hPa Calm     90 % 0 mm
07:23 -13.3 °C -14.2 °C 34428.8 hPa Calm     90 % 0 mm
07:28 -13.3 °C -14.2 °C 34428.8 hPa Calm     90 % 0 mm
07:33 -13.3 °C -14.1 °C 34428.8 hPa Calm     90 % 0 mm
07:38 -13.3 °C -14.1 °C 34428.8 hPa Calm     90 % 0 mm
07:43 -13.2 °C -14.1 °C 34428.8 hPa Calm     90 % 0 mm
07:48 -13.2 °C -14 °C 34428.8 hPa Calm     90 % 0 mm
07:53 -13.1 °C -14 °C 34428.8 hPa Calm     90 % 0 mm
07:58 -13.1 °C -13.8 °C 34428.8 hPa Calm     91 % 0 mm
08:03 -13 °C -13.8 °C 34428.8 hPa Calm     90 % 0 mm
08:08 -12.9 °C -13.8 °C 34428.8 hPa Calm     90 % 0 mm
08:13 -12.8 °C -13.7 °C 34428.8 hPa Calm     90 % 0 mm
08:18 -12.8 °C -13.7 °C 34428.8 hPa Calm     90 % 0 mm
08:23 -12.7 °C -13.5 °C 34428.8 hPa Calm     90 % 0 mm
08:28 -12.6 °C -13.5 °C 34428.8 hPa Calm     90 % 0 mm
08:33 -12.5 °C -13.4 °C 34476.3 hPa Calm     89 % 0 mm
08:38 -12.4 °C -13.3 °C 34476.3 hPa Calm     90 % 0 mm
08:43 -12.4 °C -13.3 °C 34476.3 hPa Calm     89 % 0 mm
08:48 -12.3 °C -13.3 °C 34476.3 hPa Calm     89 % 0 mm
08:53 -12.3 °C -13.2 °C 34476.3 hPa Calm     89 % 0 mm
08:58 -12.2 °C -13.3 °C 34476.3 hPa Calm     88 % 0 mm
09:03 -12.2 °C -13.3 °C 34476.3 hPa Calm     88 % 0 mm
09:05 -12.2 °C -13.2 °C 34476.3 hPa Calm     88 % 0 mm
09:10 -12.2 °C -13.2 °C 34476.3 hPa Calm     88 % 0 mm
09:15 -12.1 °C -13.3 °C 34476.3 hPa Calm     87 % 0 mm
09:20 -12.1 °C -13.2 °C 34476.3 hPa Calm     87 % 0 mm
09:25 -12 °C -13.2 °C 34476.3 hPa Calm     87 % 0 mm
09:30 -11.9 °C -13.1 °C 34476.3 hPa Calm     87 % 0 mm
09:35 -11.9 °C -13.2 °C 34476.3 hPa Calm     86 % 0 mm
09:40 -11.9 °C -13.2 °C 34476.3 hPa Calm     86 % 0 mm
09:45 -11.8 °C -13.1 °C 34476.3 hPa Calm     86 % 0 mm
09:50 -11.8 °C -13 °C 34476.3 hPa Calm     86 % 0 mm
09:55 -11.7 °C -13.1 °C 34476.3 hPa Calm     85 % 0 mm
10:00 -11.7 °C -13.1 °C 34476.3 hPa Calm     85 % 0 mm
10:05 -11.6 °C -12.9 °C 34476.3 hPa Calm     85 % 0 mm
10:10 -11.6 °C -12.9 °C 34476.3 hPa Calm     85 % 0 mm
10:15 -11.5 °C -12.8 °C 34476.3 hPa SE 0.5 km/h 8 km/h 85 % 0 mm
10:20 -11.4 °C -12.8 °C 34476.3 hPa SE 0.8 km/h 8 km/h 85 % 0 mm
10:25 -11.4 °C -12.7 °C 34476.3 hPa SW 1 km/h 11.1 km/h 85 % 0 mm
10:27 -11.4 °C -12.7 °C 34476.3 hPa SW 2.3 km/h 11.1 km/h 85 % 0 mm
10:32 -11.3 °C -12.8 °C 34476.3 hPa SW 4.7 km/h 11.1 km/h 84 % 0 mm
10:37 -11.3 °C -12.8 °C 34428.8 hPa SW 5 km/h 11.1 km/h 84 % 0 mm
10:42 -11.3 °C -12.7 °C 34428.8 hPa SW 6.3 km/h 11.1 km/h 84 % 0 mm
10:47 -11.3 °C -12.7 °C 34428.8 hPa WSW 6 km/h 11.1 km/h 84 % 0 mm
10:52 -11.3 °C -12.8 °C 34428.8 hPa West 2.6 km/h 9.8 km/h 83 % 0 mm
10:57 -11.2 °C -12.8 °C 34428.8 hPa SSW 0.5 km/h 4.2 km/h 83 % 0 mm
11:02 -11.1 °C -12.8 °C 34428.8 hPa South 2.3 km/h 9.3 km/h 82 % 0 mm
11:07 -11 °C -12.7 °C 34428.8 hPa SSW 3.4 km/h 9.3 km/h 82 % 0 mm
11:13 -10.9 °C -12.7 °C 34428.8 hPa West 2.3 km/h 9.3 km/h 81 % 0 mm
11:17 -10.9 °C -12.7 °C 34428.8 hPa NE 1.6 km/h 9.3 km/h 80 % 0 mm
11:22 -10.8 °C -12.7 °C 34428.8 hPa SE 1 km/h 9.3 km/h 80 % 0 mm
11:28 -10.8 °C -12.7 °C 34428.8 hPa SSW 3.1 km/h 10.3 km/h 79 % 0 mm
11:33 -10.7 °C -12.7 °C 34428.8 hPa SSW 3.4 km/h 10.3 km/h 79 % 0 mm
11:38 -10.7 °C -12.7 °C 34428.8 hPa South 1.6 km/h 10.3 km/h 79 % 0 mm
11:43 -10.6 °C -12.6 °C 34428.8 hPa South 3.9 km/h 10.3 km/h 79 % 0 mm
11:48 -10.4 °C -12.4 °C 34476.3 hPa South 4.2 km/h 9.3 km/h 78 % 0 mm
11:53 -10.2 °C -12.4 °C 34476.3 hPa WNW 1.8 km/h 6.4 km/h 77 % 0 mm
11:58 -10 °C -12.4 °C 34476.3 hPa North 0.8 km/h 4.2 km/h 75 % 0 mm
12:03 -9.8 °C -12.4 °C 34428.8 hPa ESE 0.8 km/h 11.1 km/h 74 % 0 mm
12:08 -9.7 °C -12.2 °C 34428.8 hPa SSE 3.1 km/h 11.1 km/h 74 % 0 mm
12:13 -9.5 °C -12.4 °C 34428.8 hPa SE 5 km/h 12.7 km/h 71 % 0 mm
12:18 -9.2 °C -12.4 °C 34476.3 hPa ESE 6.9 km/h 14.5 km/h 69 % 0 mm
12:23 -9.1 °C -12.5 °C 34476.3 hPa ESE 7.7 km/h 14.5 km/h 67 % 0 mm
12:28 -9.1 °C -12.4 °C 34476.3 hPa SSE 7.6 km/h 14.5 km/h 68 % 0 mm
12:33 -9.1 °C -12.9 °C 34476.3 hPa SE 8.2 km/h 19.6 km/h 64 % 0 mm
12:38 -9.2 °C -12.9 °C 34476.3 hPa East 8 km/h 19.6 km/h 64 % 0 mm
12:43 -9.2 °C -13.3 °C 34476.3 hPa East 7.7 km/h 16.9 km/h 61 % 0 mm
12:48 -9.1 °C -13.4 °C 34476.3 hPa East 8 km/h 16.9 km/h 60 % 0 mm
12:53 -9 °C -13.3 °C 34476.3 hPa East 6.8 km/h 16.3 km/h 60 % 0 mm
12:58 -8.7 °C -13.4 °C 34476.3 hPa East 7.7 km/h 22 km/h 57 % 0 mm
13:03 -8.8 °C -13.7 °C 34476.3 hPa East 11.9 km/h 22 km/h 56 % 0 mm
13:08 -8.8 °C -13.6 °C 34476.3 hPa ENE 11.9 km/h 19.2 km/h 57 % 0 mm
13:13 -8.9 °C -13.6 °C 34476.3 hPa ENE 8 km/h 16.3 km/h 57 % 0 mm
13:18 -8.8 °C -13.5 °C 34476.3 hPa NE 3.9 km/h 9.8 km/h 57 % 0 mm
13:23 -8.6 °C -13.4 °C 34476.3 hPa ENE 4.7 km/h 15.6 km/h 57 % 0 mm
13:28 -8.6 °C -13.6 °C 34476.3 hPa East 8.2 km/h 19.6 km/h 55 % 0 mm
13:33 -8.7 °C -14 °C 34428.8 hPa East 10.9 km/h 22 km/h 53 % 0 mm
13:38 -8.7 °C -14 °C 34428.8 hPa East 11.1 km/h 22 km/h 53 % 0 mm
13:43 -8.7 °C -14 °C 34428.8 hPa ENE 11.9 km/h 22.5 km/h 53 % 0 mm
13:48 -8.8 °C -14.1 °C 34428.8 hPa ENE 12.2 km/h 22.5 km/h 53 % 0 mm
13:53 -8.8 °C -14 °C 34428.8 hPa East 10.3 km/h 16.9 km/h 54 % 0 mm
13:58 -8.9 °C -14.1 °C 34428.8 hPa NE 8.5 km/h 14 km/h 54 % 0 mm
14:03 -9 °C -14.2 °C 34428.8 hPa NNE 7.6 km/h 14 km/h 54 % 0 mm
14:08 -9.1 °C -14.1 °C 34428.8 hPa NE 7.2 km/h 14 km/h 55 % 0 mm
14:13 -8.9 °C -13.9 °C 34428.8 hPa NE 5.1 km/h 11.6 km/h 55 % 0 mm
14:18 -8.8 °C -13.8 °C 34428.8 hPa NNE 3.7 km/h 9.3 km/h 55 % 0 mm
14:23 -8.7 °C -13.8 °C 34428.8 hPa WNW 4.3 km/h 10.3 km/h 55 % 0 mm
14:28 -8.5 °C -13.4 °C 34428.8 hPa South 5.5 km/h 12.7 km/h 56 % 0 mm
14:33 -8.4 °C -13.5 °C 34428.8 hPa SE 6.9 km/h 12.7 km/h 55 % 0 mm
14:39 -8.5 °C -13.7 °C 34428.8 hPa ESE 6.4 km/h 11.1 km/h 54 % 0 mm
14:44 -8.6 °C -13.9 °C 34428.8 hPa NE 5 km/h 14 km/h 53 % 0 mm
14:49 -8.6 °C -13.9 °C 34428.8 hPa NE 6.3 km/h 14 km/h 53 % 0 mm
14:54 -8.6 °C -13.8 °C 34428.8 hPa ENE 6.4 km/h 9.8 km/h 54 % 0 mm
14:59 -8.5 °C -13.7 °C 34428.8 hPa East 4.3 km/h 9.8 km/h 54 % 0 mm
15:04 -8.3 °C -13.5 °C 34405.1 hPa East 4.7 km/h 14 km/h 54 % 0 mm
15:09 -8.1 °C -13.5 °C 34405.1 hPa SE 6.8 km/h 14 km/h 53 % 0 mm
15:14 -8.1 °C -13.4 °C 34405.1 hPa SSE 6.4 km/h 14.5 km/h 53 % 0 mm
15:19 -8.1 °C -13.4 °C 34405.1 hPa SE 6.8 km/h 14.5 km/h 53 % 0 mm
15:24 -8 °C -13.6 °C 34405.1 hPa ESE 8.5 km/h 14 km/h 52 % 0 mm
15:29 -8.1 °C -13.8 °C 34405.1 hPa ESE 8.2 km/h 14 km/h 51 % 0 mm
15:34 -8.2 °C -13.8 °C 34371.3 hPa East 6.9 km/h 12.7 km/h 51 % 0 mm
15:39 -8.2 °C -14.1 °C 34371.3 hPa ESE 6 km/h 9.8 km/h 50 % 0 mm
15:45 -8.2 °C -14.1 °C 34371.3 hPa NE 6.4 km/h 14.5 km/h 50 % 0 mm
15:50 -8.2 °C -14.1 °C 34405.1 hPa ENE 7.2 km/h 12.2 km/h 50 % 0 mm
15:55 -8.1 °C -13.8 °C 34405.1 hPa East 5.1 km/h 11.1 km/h 51 % 0 mm
16:00 -7.9 °C -13.6 °C 34405.1 hPa ESE 4.3 km/h 15 km/h 51 % 0 mm
16:05 -7.8 °C -13.7 °C 34405.1 hPa ESE 7.7 km/h 15.6 km/h 50 % 0 mm
16:10 -7.9 °C -13.8 °C 34405.1 hPa East 8.5 km/h 15.6 km/h 50 % 0 mm
16:15 -8.1 °C -14.1 °C 34405.1 hPa NE 6 km/h 14 km/h 49 % 0 mm
16:20 -8.1 °C -14.1 °C 34405.1 hPa ENE 5 km/h 12.2 km/h 49 % 0 mm
16:25 -8.2 °C -14.2 °C 34405.1 hPa East 7.2 km/h 15 km/h 49 % 0 mm
16:30 -8.2 °C -14.2 °C 34405.1 hPa East 9.8 km/h 15 km/h 49 % 0 mm
16:35 -8.3 °C -14.1 °C 34405.1 hPa ESE 7.2 km/h 14 km/h 50 % 0 mm
16:40 -8.3 °C -14.3 °C 34405.1 hPa ESE 8.2 km/h 14 km/h 49 % 0 mm
16:45 -8.3 °C -14.2 °C 34405.1 hPa ESE 9 km/h 14.5 km/h 50 % 0 mm
16:50 -8.4 °C -14.1 °C 34405.1 hPa SE 8.9 km/h 14.5 km/h 51 % 0 mm
16:55 -8.4 °C -14.1 °C 34405.1 hPa SE 8.5 km/h 14 km/h 51 % 0 mm
17:00 -8.4 °C -13.9 °C 34405.1 hPa ESE 7.6 km/h 14 km/h 52 % 0 mm
17:05 -8.5 °C -14 °C 34371.3 hPa ESE 6.4 km/h 14 km/h 52 % 0 mm
17:10 -8.6 °C -14.1 °C 34371.3 hPa ESE 5.6 km/h 14 km/h 52 % 0 mm
17:15 -8.7 °C -14.2 °C 34371.3 hPa ESE 5 km/h 8 km/h 52 % 0 mm
17:20 -8.7 °C -14.2 °C 34371.3 hPa East 6.9 km/h 6.9 km/h 52 % 0 mm
17:25 -8.8 °C -14.3 °C 34371.3 hPa East 6.9 km/h 6.9 km/h 52 % 0 mm
17:30 -8.8 °C -14.3 °C 34371.3 hPa East 3.9 km/h 4.2 km/h 52 % 0 mm
17:35 -8.8 °C -14.2 °C 34371.3 hPa Calm     53 % 0 mm
17:40 -8.8 °C -14.1 °C 34371.3 hPa Calm     53 % 0 mm
17:45 -8.7 °C -13.9 °C 34371.3 hPa Calm     54 % 0 mm
17:50 -8.7 °C -14.1 °C 34371.3 hPa Calm     53 % 0 mm
17:55 -8.7 °C -14.1 °C 34371.3 hPa Calm     53 % 0 mm
18:00 -8.8 °C -14.1 °C 34371.3 hPa SSE 2.1 km/h 5.1 km/h 53 % 0 mm
18:05 -8.8 °C -14.1 °C 34371.3 hPa SSE 1.8 km/h 5.6 km/h 53 % 0 mm
18:10 -8.8 °C -14 °C 34371.3 hPa SSE 2.1 km/h 6.4 km/h 54 % 0 mm
18:15 -8.9 °C -14.1 °C 34371.3 hPa SSE 1.6 km/h 6.4 km/h 54 % 0 mm
18:20 -9 °C -14 °C 34371.3 hPa SSE 0.8 km/h 5.1 km/h 55 % 0 mm
18:25 -9.1 °C -14.1 °C 34371.3 hPa SSE 0.3 km/h 2.3 km/h 55 % 0 mm
18:30 -9.1 °C -14.1 °C 34371.3 hPa Calm     55 % 0 mm
18:31 -9.2 °C -14.2 °C 34371.3 hPa Calm     55 % 0 mm
18:36 -9.3 °C -14.1 °C 34337.4 hPa Calm     56 % 0 mm
18:41 -9.3 °C -13.9 °C 34337.4 hPa Calm     58 % 0 mm
18:46 -9.5 °C -13.9 °C 34337.4 hPa Calm   3.4 km/h 59 % 0 mm
18:51 -9.6 °C -13.9 °C 34371.3 hPa Calm   3.4 km/h 60 % 0 mm
18:56 -9.7 °C -13.9 °C 34371.3 hPa Calm     60 % 0 mm
19:01 -9.8 °C -13.9 °C 34371.3 hPa Calm     61 % 0 mm
19:06 -9.9 °C -13.9 °C 34371.3 hPa Calm     62 % 0 mm
19:12 -10 °C -13.8 °C 34371.3 hPa Calm     63 % 0 mm
19:17 -10.1 °C -13.8 °C 34371.3 hPa Calm     64 % 0 mm
19:22 -10.2 °C -13.8 °C 34405.1 hPa Calm   2.3 km/h 65 % 0 mm
19:27 -10.2 °C -13.8 °C 34405.1 hPa Calm   2.3 km/h 65 % 0 mm
19:32 -10.3 °C -13.7 °C 34405.1 hPa Calm     66 % 0 mm
19:37 -10.3 °C -13.8 °C 34371.3 hPa NW 0.3 km/h 5.1 km/h 66 % 0 mm
19:42 -10.4 °C -13.7 °C 34371.3 hPa WNW 0.8 km/h 5.6 km/h 67 % 0 mm
19:47 -10.4 °C -13.8 °C 34371.3 hPa WNW 0.5 km/h 6.4 km/h 67 % 0 mm
19:52 -10.5 °C -13.7 °C 34428.8 hPa NW 0.5 km/h 6.4 km/h 68 % 0 mm
19:57 -10.6 °C -13.8 °C 34371.3 hPa NW 0.5 km/h 6.4 km/h 68 % 0 mm
20:02 -10.7 °C -13.7 °C 34371.3 hPa Calm     70 % 0 mm
20:07 -10.7 °C -13.4 °C 34405.1 hPa Calm     72 % 7.62 mm
20:12 -10.8 °C -13.4 °C 34405.1 hPa SW 0.5 km/h 5.6 km/h 73 % 7.62 mm
20:17 -10.8 °C -13.3 °C 34405.1 hPa SW 0.5 km/h 5.6 km/h 74 % 7.62 mm
20:22 -10.9 °C -13.3 °C 34405.1 hPa Calm     75 % 7.62 mm
20:27 -10.9 °C -13.3 °C 34405.1 hPa Calm     75 % 7.62 mm
20:32 -11.1 °C -13.1 °C 34428.8 hPa NW 1.3 km/h 6.4 km/h 78 % 7.62 mm
20:37 -11.1 °C -13.2 °C 34428.8 hPa WNW 3.4 km/h 6.4 km/h 78 % 7.62 mm
20:42 -11.2 °C -13.1 °C 34428.8 hPa West 3.1 km/h 5.6 km/h 79 % 7.62 mm
20:47 -11.3 °C -13.1 °C 34405.1 hPa West 1 km/h 5.1 km/h 80 % 7.62 mm
20:52 -11.4 °C -13.2 °C 34405.1 hPa Calm     81 % 7.62 mm
20:57 -11.4 °C -13.2 °C 34405.1 hPa Calm     81 % 7.62 mm
21:02 -11.4 °C -13.1 °C 34371.3 hPa Calm     82 % 0 mm
21:07 -11.6 °C -13.2 °C 34371.3 hPa Calm     82 % 0 mm
21:12 -11.7 °C -13.3 °C 34371.3 hPa Calm     82 % 0 mm
21:17 -11.8 °C -13.3 °C 34371.3 hPa Calm     83 % 0 mm
21:22 -11.8 °C -13.3 °C 34371.3 hPa Calm     84 % 0 mm
21:27 -11.9 °C -13.4 °C 34371.3 hPa Calm     84 % 0 mm
21:32 -12 °C -13.4 °C 34371.3 hPa Calm     84 % 0 mm
21:38 -12.1 °C -13.5 °C 34371.3 hPa Calm     84 % 0 mm
21:43 -12.2 °C -13.6 °C 34371.3 hPa Calm     84 % 0 mm
21:48 -12.2 °C -13.7 °C 34405.1 hPa Calm     84 % 0 mm
21:53 -12.3 °C -13.6 °C 34405.1 hPa Calm     85 % 0 mm
21:58 -12.3 °C -13.6 °C 34405.1 hPa Calm     85 % 0 mm
22:03 -12.3 °C -13.5 °C 34405.1 hPa Calm     86 % 0 mm
22:08 -12.3 °C -13.5 °C 34405.1 hPa Calm     86 % 0 mm
22:13 -12.3 °C -13.6 °C 34405.1 hPa Calm     86 % 0 mm
22:18 -12.3 °C -13.5 °C 34405.1 hPa Calm     87 % 0 mm
22:23 -12.4 °C -13.5 °C 34405.1 hPa Calm   6.9 km/h 87 % 0 mm
22:28 -12.4 °C -13.5 °C 34405.1 hPa West 1.6 km/h 8 km/h 87 % 0 mm
22:33 -12.4 °C -13.4 °C 34405.1 hPa West 2.6 km/h 8 km/h 88 % 0 mm
22:38 -12.4 °C -13.6 °C 34405.1 hPa WNW 1.6 km/h 5.6 km/h 87 % 0 mm
22:43 -12.5 °C -13.6 °C 34405.1 hPa NW 1.6 km/h 6.9 km/h 88 % 0 mm
22:48 -12.5 °C -13.6 °C 34405.1 hPa NW 3.4 km/h 9.8 km/h 88 % 0 mm
22:53 -12.6 °C -13.5 °C 34405.1 hPa NW 5 km/h 9.8 km/h 89 % 0 mm
22:58 -12.6 °C -13.5 °C 34405.1 hPa NW 5.5 km/h 8.9 km/h 89 % 0 mm
23:03 -12.6 °C -13.5 °C 34405.1 hPa NW 4.2 km/h 8.9 km/h 89 % 0 mm
23:08 -12.6 °C -13.4 °C 34405.1 hPa NW 3.7 km/h 10.3 km/h 90 % 0 mm
23:13 -12.6 °C -13.4 °C 34405.1 hPa WNW 2.1 km/h 10.3 km/h 90 % 0 mm
23:18 -12.6 °C -13.5 °C 34405.1 hPa SW 0.3 km/h 6.4 km/h 90 % 0 mm
23:23 -12.6 °C -13.5 °C 34405.1 hPa West 0.5 km/h 6.4 km/h 90 % 0 mm
23:28 -12.6 °C -13.5 °C 34405.1 hPa NW 1.6 km/h 7.6 km/h 90 % 0 mm
23:33 -12.6 °C -13.5 °C 34405.1 hPa NNW 1 km/h 7.6 km/h 90 % 0 mm
23:38 -12.7 °C -13.5 °C 34405.1 hPa Calm     90 % 0 mm
23:43 -12.7 °C -13.5 °C 34405.1 hPa Calm     90 % 0 mm
23:49 -12.7 °C -13.6 °C 34405.1 hPa Calm     90 % 0 mm
23:54 -12.8 °C -13.7 °C 34405.1 hPa Calm     90 % 0 mm
23:59 -12.8 °C -13.7 °C 34405.1 hPa Calm     90 % 0 mm
Vremenska postaja Senovo
Podatki zbrani iz Weather Underground - 3 mb

Script developed by  Jim McMurry - jmcmurry@mwt.net Adapted for the template by  Wim van der Kuil - Leuven-Template.eu

Vremenski podatki so objavljeni na:

European Weather Network

WeatherCloud

Weather Underground

AWEKAS

HAMweather, WeatherForYou, PWS Weather

MapView

Geostik

Slovenia weather network

Oprema, ki se uporablja:

Vremenski program
Cumulus

Vremenski server
Asus

Cumulus

Asus